Year,Month,Day,Hour,Minute,Value (Times are PST for temperature in C)
2008,07,19,00,00,13.70
2008,07,19,00,01,13.70
2008,07,19,00,02,13.70
2008,07,19,00,03,13.70
2008,07,19,00,04,13.80
2008,07,19,00,05,13.80
2008,07,19,00,06,13.90
2008,07,19,00,07,13.90
2008,07,19,00,08,14.00
2008,07,19,00,09,14.10
2008,07,19,00,10,14.20
2008,07,19,00,11,14.20
2008,07,19,00,12,14.30
2008,07,19,00,13,14.30
2008,07,19,00,14,14.30
2008,07,19,00,15,14.30
2008,07,19,00,16,14.30
2008,07,19,00,17,14.30
2008,07,19,00,18,14.30
2008,07,19,00,19,14.30
2008,07,19,00,20,14.30
2008,07,19,00,21,14.20
2008,07,19,00,22,14.20
2008,07,19,00,23,14.20
2008,07,19,00,24,14.10
2008,07,19,00,25,14.10
2008,07,19,00,26,14.00
2008,07,19,00,27,14.00
2008,07,19,00,28,13.90
2008,07,19,00,29,13.90
2008,07,19,00,30,13.80
2008,07,19,00,31,13.80
2008,07,19,00,32,13.80
2008,07,19,00,33,13.70
2008,07,19,00,34,13.70
2008,07,19,00,35,13.60
2008,07,19,00,36,13.60
2008,07,19,00,37,13.60
2008,07,19,00,38,13.50
2008,07,19,00,39,13.50
2008,07,19,00,40,13.50
2008,07,19,00,41,13.40
2008,07,19,00,42,13.40
2008,07,19,00,43,13.40
2008,07,19,00,44,13.40
2008,07,19,00,45,13.30
2008,07,19,00,46,13.30
2008,07,19,00,47,13.30
2008,07,19,00,48,13.30
2008,07,19,00,49,13.20
2008,07,19,00,50,13.20
2008,07,19,00,51,13.30
2008,07,19,00,52,13.40
2008,07,19,00,53,13.40
2008,07,19,00,54,13.50
2008,07,19,00,55,13.50
2008,07,19,00,56,13.60
2008,07,19,00,57,13.70
2008,07,19,00,58,13.70
2008,07,19,00,59,13.70
2008,07,19,01,00,13.80
2008,07,19,01,01,13.80
2008,07,19,01,02,13.80
2008,07,19,01,03,13.90
2008,07,19,01,04,13.90
2008,07,19,01,05,13.80
2008,07,19,01,06,13.80
2008,07,19,01,07,13.80
2008,07,19,01,08,13.80
2008,07,19,01,09,13.80
2008,07,19,01,10,13.80
2008,07,19,01,11,13.80
2008,07,19,01,12,13.80
2008,07,19,01,13,13.70
2008,07,19,01,14,13.70
2008,07,19,01,15,13.70
2008,07,19,01,16,13.70
2008,07,19,01,17,13.70
2008,07,19,01,18,13.60
2008,07,19,01,19,13.60
2008,07,19,01,20,13.60
2008,07,19,01,21,13.60
2008,07,19,01,22,13.50
2008,07,19,01,23,13.50
2008,07,19,01,24,13.50
2008,07,19,01,25,13.50
2008,07,19,01,26,13.50
2008,07,19,01,27,13.50
2008,07,19,01,28,13.50
2008,07,19,01,29,13.50
2008,07,19,01,30,13.40
2008,07,19,01,31,13.40
2008,07,19,01,32,13.40
2008,07,19,01,33,13.40
2008,07,19,01,34,13.40
2008,07,19,01,35,13.40
2008,07,19,01,36,13.30
2008,07,19,01,37,13.30
2008,07,19,01,38,13.30
2008,07,19,01,39,13.30
2008,07,19,01,40,13.30
2008,07,19,01,41,13.20
2008,07,19,01,42,13.20
2008,07,19,01,43,13.20
2008,07,19,01,44,13.20
2008,07,19,01,45,13.10
2008,07,19,01,46,13.10
2008,07,19,01,47,13.00
2008,07,19,01,48,12.90
2008,07,19,01,49,12.90
2008,07,19,01,50,12.80
2008,07,19,01,51,12.70
2008,07,19,01,52,12.70
2008,07,19,01,53,12.70
2008,07,19,01,54,12.80
2008,07,19,01,55,12.80
2008,07,19,01,56,12.80
2008,07,19,01,57,12.80
2008,07,19,01,58,12.80
2008,07,19,01,59,12.80
2008,07,19,02,00,12.80
2008,07,19,02,01,12.80
2008,07,19,02,02,12.80
2008,07,19,02,03,12.80
2008,07,19,02,04,12.80
2008,07,19,02,05,12.80
2008,07,19,02,06,12.80
2008,07,19,02,07,12.80
2008,07,19,02,08,12.80
2008,07,19,02,09,12.80
2008,07,19,02,10,12.80
2008,07,19,02,11,12.80
2008,07,19,02,12,12.80
2008,07,19,02,13,12.90
2008,07,19,02,14,12.90
2008,07,19,02,15,12.80
2008,07,19,02,16,12.80
2008,07,19,02,17,12.80
2008,07,19,02,18,12.80
2008,07,19,02,19,12.80
2008,07,19,02,20,12.80
2008,07,19,02,21,12.80
2008,07,19,02,22,12.80
2008,07,19,02,23,12.80
2008,07,19,02,24,12.80
2008,07,19,02,25,12.80
2008,07,19,02,26,12.80
2008,07,19,02,27,12.70
2008,07,19,02,28,12.70
2008,07,19,02,29,12.70
2008,07,19,02,30,12.70
2008,07,19,02,31,12.70
2008,07,19,02,32,12.70
2008,07,19,02,33,12.60
2008,07,19,02,34,12.60
2008,07,19,02,35,12.60
2008,07,19,02,36,12.60
2008,07,19,02,37,12.60
2008,07,19,02,38,12.50
2008,07,19,02,39,12.50
2008,07,19,02,40,12.50
2008,07,19,02,41,12.40
2008,07,19,02,42,12.40
2008,07,19,02,43,12.40
2008,07,19,02,44,12.30
2008,07,19,02,45,12.30
2008,07,19,02,46,12.30
2008,07,19,02,47,12.30
2008,07,19,02,48,12.30
2008,07,19,02,49,12.30
2008,07,19,02,50,12.30
2008,07,19,02,51,12.30
2008,07,19,02,52,12.30
2008,07,19,02,53,12.30
2008,07,19,02,54,12.30
2008,07,19,02,55,12.30
2008,07,19,02,56,12.30
2008,07,19,02,57,12.30
2008,07,19,02,58,12.30
2008,07,19,02,59,12.30
2008,07,19,03,00,12.30
2008,07,19,03,01,12.30
2008,07,19,03,02,12.30
2008,07,19,03,03,12.30
2008,07,19,03,04,12.20
2008,07,19,03,05,12.20
2008,07,19,03,06,12.20
2008,07,19,03,07,12.10
2008,07,19,03,08,12.10
2008,07,19,03,09,12.10
2008,07,19,03,10,12.10
2008,07,19,03,11,12.10
2008,07,19,03,12,12.10
2008,07,19,03,13,12.10
2008,07,19,03,14,12.20
2008,07,19,03,15,12.20
2008,07,19,03,16,12.30
2008,07,19,03,17,12.30
2008,07,19,03,18,12.30
2008,07,19,03,19,12.30
2008,07,19,03,20,12.30
2008,07,19,03,21,12.30
2008,07,19,03,22,12.30
2008,07,19,03,23,12.30
2008,07,19,03,24,12.30
2008,07,19,03,25,12.30
2008,07,19,03,26,12.30
2008,07,19,03,27,12.30
2008,07,19,03,28,12.40
2008,07,19,03,29,12.40
2008,07,19,03,30,12.40
2008,07,19,03,31,12.30
2008,07,19,03,32,12.30
2008,07,19,03,33,12.30
2008,07,19,03,34,12.30
2008,07,19,03,35,12.30
2008,07,19,03,36,12.30
2008,07,19,03,37,12.30
2008,07,19,03,38,12.30
2008,07,19,03,39,12.40
2008,07,19,03,40,12.40
2008,07,19,03,41,12.40
2008,07,19,03,42,12.40
2008,07,19,03,43,12.50
2008,07,19,03,44,12.50
2008,07,19,03,45,12.50
2008,07,19,03,46,12.40
2008,07,19,03,47,12.50
2008,07,19,03,48,12.40
2008,07,19,03,49,12.50
2008,07,19,03,50,12.50
2008,07,19,03,51,12.40
2008,07,19,03,52,12.40
2008,07,19,03,53,12.40
2008,07,19,03,54,12.40
2008,07,19,03,55,12.30
2008,07,19,03,56,12.30
2008,07,19,03,57,12.30
2008,07,19,03,58,12.20
2008,07,19,03,59,12.20
2008,07,19,04,00,12.20
2008,07,19,04,01,12.20
2008,07,19,04,02,12.20
2008,07,19,04,03,12.10
2008,07,19,04,04,12.10
2008,07,19,04,05,12.10
2008,07,19,04,06,12.10
2008,07,19,04,07,12.20
2008,07,19,04,08,12.10
2008,07,19,04,09,12.10
2008,07,19,04,10,12.10
2008,07,19,04,11,12.10
2008,07,19,04,12,12.20
2008,07,19,04,13,12.20
2008,07,19,04,14,12.20
2008,07,19,04,15,12.30
2008,07,19,04,16,12.30
2008,07,19,04,17,12.30
2008,07,19,04,18,12.30
2008,07,19,04,19,12.30
2008,07,19,04,20,12.30
2008,07,19,04,21,12.30
2008,07,19,04,22,12.30
2008,07,19,04,23,12.20
2008,07,19,04,24,12.20
2008,07,19,04,25,12.20
2008,07,19,04,26,12.20
2008,07,19,04,27,12.10
2008,07,19,04,28,12.10
2008,07,19,04,29,12.10
2008,07,19,04,30,12.00
2008,07,19,04,31,12.00
2008,07,19,04,32,11.90
2008,07,19,04,33,11.90
2008,07,19,04,34,11.90
2008,07,19,04,35,11.90
2008,07,19,04,36,11.90
2008,07,19,04,37,11.80
2008,07,19,04,38,11.80
2008,07,19,04,39,11.80
2008,07,19,04,40,11.80
2008,07,19,04,41,11.80
2008,07,19,04,42,11.80
2008,07,19,04,43,11.80
2008,07,19,04,44,11.80
2008,07,19,04,45,11.80
2008,07,19,04,46,11.80
2008,07,19,04,47,11.80
2008,07,19,04,48,11.90
2008,07,19,04,49,12.00
2008,07,19,04,50,12.10
2008,07,19,04,51,12.10
2008,07,19,04,52,12.20
2008,07,19,04,53,12.20
2008,07,19,04,54,12.20
2008,07,19,04,55,12.30
2008,07,19,04,56,12.30
2008,07,19,04,57,12.30
2008,07,19,04,58,12.30
2008,07,19,04,59,12.40
2008,07,19,05,00,12.40
2008,07,19,05,01,12.40
2008,07,19,05,02,12.40
2008,07,19,05,03,12.40
2008,07,19,05,04,12.30
2008,07,19,05,05,12.30
2008,07,19,05,06,12.30
2008,07,19,05,07,12.30
2008,07,19,05,08,12.30
2008,07,19,05,09,12.20
2008,07,19,05,10,12.20
2008,07,19,05,11,12.20
2008,07,19,05,12,12.20
2008,07,19,05,13,12.20
2008,07,19,05,14,12.20
2008,07,19,05,15,12.20
2008,07,19,05,16,12.20
2008,07,19,05,17,12.20
2008,07,19,05,18,12.10
2008,07,19,05,19,12.10
2008,07,19,05,20,12.10
2008,07,19,05,21,12.10
2008,07,19,05,22,12.10
2008,07,19,05,23,12.10
2008,07,19,05,24,12.10
2008,07,19,05,25,12.10
2008,07,19,05,26,12.10
2008,07,19,05,27,12.20
2008,07,19,05,28,12.20
2008,07,19,05,29,12.20
2008,07,19,05,30,12.20
2008,07,19,05,31,12.20
2008,07,19,05,32,12.30
2008,07,19,05,33,12.30
2008,07,19,05,34,12.30
2008,07,19,05,35,12.30
2008,07,19,05,36,12.40
2008,07,19,05,37,12.40
2008,07,19,05,38,12.40
2008,07,19,05,39,12.40
2008,07,19,05,40,12.40
2008,07,19,05,41,12.40
2008,07,19,05,42,12.40
2008,07,19,05,43,12.40
2008,07,19,05,44,12.40
2008,07,19,05,45,12.30
2008,07,19,05,46,12.30
2008,07,19,05,47,12.30
2008,07,19,05,48,12.30
2008,07,19,05,49,12.30
2008,07,19,05,50,12.30
2008,07,19,05,51,12.30
2008,07,19,05,52,12.20
2008,07,19,05,53,12.20
2008,07,19,05,54,12.20
2008,07,19,05,55,12.20
2008,07,19,05,56,12.20
2008,07,19,05,57,12.20
2008,07,19,05,58,12.20
2008,07,19,05,59,12.20
2008,07,19,06,00,12.30
2008,07,19,06,01,12.30
2008,07,19,06,02,12.30
2008,07,19,06,03,12.30
2008,07,19,06,04,12.30
2008,07,19,06,05,12.30
2008,07,19,06,06,12.40
2008,07,19,06,07,12.40
2008,07,19,06,08,12.40
2008,07,19,06,09,12.50
2008,07,19,06,10,12.50
2008,07,19,06,11,12.50
2008,07,19,06,12,12.50
2008,07,19,06,13,12.50
2008,07,19,06,14,12.60
2008,07,19,06,15,12.60
2008,07,19,06,16,12.60
2008,07,19,06,17,12.60
2008,07,19,06,18,12.70
2008,07,19,06,19,12.70
2008,07,19,06,20,12.70
2008,07,19,06,21,12.80
2008,07,19,06,22,12.80
2008,07,19,06,23,12.80
2008,07,19,06,24,12.80
2008,07,19,06,25,12.90
2008,07,19,06,26,12.90
2008,07,19,06,27,12.90
2008,07,19,06,28,12.90
2008,07,19,06,29,12.90
2008,07,19,06,30,12.90
2008,07,19,06,31,12.90
2008,07,19,06,32,13.00
2008,07,19,06,33,13.00
2008,07,19,06,34,13.00
2008,07,19,06,35,13.10
2008,07,19,06,36,13.10
2008,07,19,06,37,13.20
2008,07,19,06,38,13.20
2008,07,19,06,39,13.20
2008,07,19,06,40,13.30
2008,07,19,06,41,13.30
2008,07,19,06,42,13.30
2008,07,19,06,43,13.30
2008,07,19,06,44,13.30
2008,07,19,06,45,13.40
2008,07,19,06,46,13.40
2008,07,19,06,47,13.40
2008,07,19,06,48,13.40
2008,07,19,06,49,13.50
2008,07,19,06,50,13.50
2008,07,19,06,51,13.50
2008,07,19,06,52,13.60
2008,07,19,06,53,13.60
2008,07,19,06,54,13.60
2008,07,19,06,55,13.70
2008,07,19,06,56,13.70
2008,07,19,06,57,13.80
2008,07,19,06,58,13.80
2008,07,19,06,59,13.80
2008,07,19,07,00,13.80
2008,07,19,07,01,13.80
2008,07,19,07,02,13.90
2008,07,19,07,03,13.90
2008,07,19,07,04,13.90
2008,07,19,07,05,14.00
2008,07,19,07,06,14.00
2008,07,19,07,07,14.00
2008,07,19,07,08,14.10
2008,07,19,07,09,14.10
2008,07,19,07,10,14.10
2008,07,19,07,11,14.20
2008,07,19,07,12,14.20
2008,07,19,07,13,14.20
2008,07,19,07,14,14.20
2008,07,19,07,15,14.30
2008,07,19,07,16,14.30
2008,07,19,07,17,14.30
2008,07,19,07,18,14.40
2008,07,19,07,19,14.40
2008,07,19,07,20,14.50
2008,07,19,07,21,14.50
2008,07,19,07,22,14.60
2008,07,19,07,23,14.70
2008,07,19,07,24,14.70
2008,07,19,07,25,14.80
2008,07,19,07,26,14.90
2008,07,19,07,27,15.00
2008,07,19,07,28,15.00
2008,07,19,07,29,15.00
2008,07,19,07,30,15.00
2008,07,19,07,31,15.00
2008,07,19,07,32,15.10
2008,07,19,07,33,15.10
2008,07,19,07,34,15.20
2008,07,19,07,35,15.30
2008,07,19,07,36,15.30
2008,07,19,07,37,15.40
2008,07,19,07,38,15.40
2008,07,19,07,39,15.40
2008,07,19,07,40,15.50
2008,07,19,07,41,15.50
2008,07,19,07,42,15.60
2008,07,19,07,43,15.60
2008,07,19,07,44,15.60
2008,07,19,07,45,15.60
2008,07,19,07,46,15.70
2008,07,19,07,47,15.70
2008,07,19,07,48,15.70
2008,07,19,07,49,15.80
2008,07,19,07,50,15.80
2008,07,19,07,51,15.90
2008,07,19,07,52,15.90
2008,07,19,07,53,15.90
2008,07,19,07,54,16.00
2008,07,19,07,55,16.00
2008,07,19,07,56,16.10
2008,07,19,07,57,16.10
2008,07,19,07,58,16.20
2008,07,19,07,59,16.30
2008,07,19,08,00,16.30
2008,07,19,08,01,16.40
2008,07,19,08,02,16.50
2008,07,19,08,03,16.50
2008,07,19,08,04,16.60
2008,07,19,08,05,16.70
2008,07,19,08,06,16.80
2008,07,19,08,07,16.80
2008,07,19,08,08,16.90
2008,07,19,08,09,16.90
2008,07,19,08,10,16.90
2008,07,19,08,11,16.90
2008,07,19,08,12,16.90
2008,07,19,08,13,16.90
2008,07,19,08,14,16.90
2008,07,19,08,15,16.90
2008,07,19,08,16,16.90
2008,07,19,08,17,17.00
2008,07,19,08,18,17.00
2008,07,19,08,19,17.00
2008,07,19,08,20,17.00
2008,07,19,08,21,17.00
2008,07,19,08,22,17.00
2008,07,19,08,23,17.10
2008,07,19,08,24,17.10
2008,07,19,08,25,17.20
2008,07,19,08,26,17.20
2008,07,19,08,27,17.30
2008,07,19,08,28,17.30
2008,07,19,08,29,17.30
2008,07,19,08,30,17.30
2008,07,19,08,31,17.30
2008,07,19,08,32,17.30
2008,07,19,08,33,17.40
2008,07,19,08,34,17.40
2008,07,19,08,35,17.40
2008,07,19,08,36,17.40
2008,07,19,08,37,17.40
2008,07,19,08,38,17.50
2008,07,19,08,39,17.50
2008,07,19,08,40,17.60
2008,07,19,08,41,17.60
2008,07,19,08,42,17.70
2008,07,19,08,43,17.90
2008,07,19,08,44,18.00
2008,07,19,08,45,18.10
2008,07,19,08,46,18.20
2008,07,19,08,47,18.30
2008,07,19,08,48,18.40
2008,07,19,08,49,18.40
2008,07,19,08,50,18.50
2008,07,19,08,51,18.50
2008,07,19,08,52,18.60
2008,07,19,08,53,18.60
2008,07,19,08,54,18.60
2008,07,19,08,55,18.70
2008,07,19,08,56,18.70
2008,07,19,08,57,18.70
2008,07,19,08,58,18.70
2008,07,19,08,59,18.70
2008,07,19,09,00,18.70
2008,07,19,09,01,18.70
2008,07,19,09,02,18.80
2008,07,19,09,03,18.80
2008,07,19,09,04,18.70
2008,07,19,09,05,18.70
2008,07,19,09,06,18.70
2008,07,19,09,07,18.70
2008,07,19,09,08,18.70
2008,07,19,09,09,18.70
2008,07,19,09,10,18.80
2008,07,19,09,11,18.80
2008,07,19,09,12,18.90
2008,07,19,09,13,18.90
2008,07,19,09,14,19.00
2008,07,19,09,15,19.10
2008,07,19,09,16,19.10
2008,07,19,09,17,19.20
2008,07,19,09,18,19.20
2008,07,19,09,19,19.20
2008,07,19,09,20,19.20
2008,07,19,09,21,19.20
2008,07,19,09,22,19.20
2008,07,19,09,23,19.20
2008,07,19,09,24,19.10
2008,07,19,09,25,19.10
2008,07,19,09,26,19.10
2008,07,19,09,27,19.10
2008,07,19,09,28,19.10
2008,07,19,09,29,19.10
2008,07,19,09,30,19.10
2008,07,19,09,31,19.10
2008,07,19,09,32,19.00
2008,07,19,09,33,18.90
2008,07,19,09,34,18.80
2008,07,19,09,35,18.70
2008,07,19,09,36,18.70
2008,07,19,09,37,18.70
2008,07,19,09,38,18.70
2008,07,19,09,39,18.80
2008,07,19,09,40,18.80
2008,07,19,09,41,18.90
2008,07,19,09,42,18.90
2008,07,19,09,43,18.90
2008,07,19,09,44,19.00
2008,07,19,09,45,19.00
2008,07,19,09,46,19.10
2008,07,19,09,47,19.20
2008,07,19,09,48,19.20
2008,07,19,09,49,19.30
2008,07,19,09,50,19.30
2008,07,19,09,51,19.30
2008,07,19,09,52,19.30
2008,07,19,09,53,19.40
2008,07,19,09,54,19.40
2008,07,19,09,55,19.40
2008,07,19,09,56,19.50
2008,07,19,09,57,19.50
2008,07,19,09,58,19.60
2008,07,19,09,59,19.60
2008,07,19,10,00,19.70
2008,07,19,10,01,19.70
2008,07,19,10,02,19.70
2008,07,19,10,03,19.80
2008,07,19,10,04,19.80
2008,07,19,10,05,19.80
2008,07,19,10,06,19.80
2008,07,19,10,07,19.80
2008,07,19,10,08,19.80
2008,07,19,10,09,19.70
2008,07,19,10,10,19.80
2008,07,19,10,11,19.80
2008,07,19,10,12,19.80
2008,07,19,10,13,19.70
2008,07,19,10,14,19.70
2008,07,19,10,15,19.70
2008,07,19,10,16,19.70
2008,07,19,10,17,19.70
2008,07,19,10,18,19.60
2008,07,19,10,19,19.60
2008,07,19,10,20,19.60
2008,07,19,10,21,19.60
2008,07,19,10,22,19.60
2008,07,19,10,23,19.60
2008,07,19,10,24,19.60
2008,07,19,10,25,19.60
2008,07,19,10,26,19.60
2008,07,19,10,27,19.60
2008,07,19,10,28,19.60
2008,07,19,10,29,19.60
2008,07,19,10,30,19.60
2008,07,19,10,31,19.60
2008,07,19,10,32,19.60
2008,07,19,10,33,19.60
2008,07,19,10,34,19.50
2008,07,19,10,35,19.50
2008,07,19,10,36,19.40
2008,07,19,10,37,19.30
2008,07,19,10,38,19.10
2008,07,19,10,39,19.00
2008,07,19,10,40,19.00
2008,07,19,10,41,18.90
2008,07,19,10,42,18.90
2008,07,19,10,43,18.90
2008,07,19,10,44,18.90
2008,07,19,10,45,19.00
2008,07,19,10,46,19.00
2008,07,19,10,47,19.00
2008,07,19,10,48,18.90
2008,07,19,10,49,18.90
2008,07,19,10,50,18.90
2008,07,19,10,51,18.80
2008,07,19,10,52,18.80
2008,07,19,10,53,18.80
2008,07,19,10,54,18.80
2008,07,19,10,55,18.80
2008,07,19,10,56,18.60
2008,07,19,10,57,18.50
2008,07,19,10,58,18.40
2008,07,19,10,59,18.40
2008,07,19,11,00,18.50
2008,07,19,11,01,18.60
2008,07,19,11,02,18.60
2008,07,19,11,03,18.70
2008,07,19,11,04,18.70
2008,07,19,11,05,18.70
2008,07,19,11,06,18.80
2008,07,19,11,07,18.90
2008,07,19,11,08,19.00
2008,07,19,11,09,19.10
2008,07,19,11,10,19.10
2008,07,19,11,11,19.20
2008,07,19,11,12,19.30
2008,07,19,11,13,19.30
2008,07,19,11,14,19.30
2008,07,19,11,15,19.30
2008,07,19,11,16,19.30
2008,07,19,11,17,19.30
2008,07,19,11,18,19.30
2008,07,19,11,19,19.30
2008,07,19,11,20,19.30
2008,07,19,11,21,19.30
2008,07,19,11,22,19.20
2008,07,19,11,23,19.10
2008,07,19,11,24,18.90
2008,07,19,11,25,18.80
2008,07,19,11,26,18.70
2008,07,19,11,27,18.60
2008,07,19,11,28,18.60
2008,07,19,11,29,18.60
2008,07,19,11,30,18.60
2008,07,19,11,31,18.60
2008,07,19,11,32,18.70
2008,07,19,11,33,18.70
2008,07,19,11,34,18.80
2008,07,19,11,35,18.90
2008,07,19,11,36,18.90
2008,07,19,11,37,19.00
2008,07,19,11,38,19.10
2008,07,19,11,39,19.20
2008,07,19,11,40,19.20
2008,07,19,11,41,19.30
2008,07,19,11,42,19.30
2008,07,19,11,43,19.40
2008,07,19,11,44,19.40
2008,07,19,11,45,19.50
2008,07,19,11,46,19.60
2008,07,19,11,47,19.80
2008,07,19,11,48,19.90
2008,07,19,11,49,20.00
2008,07,19,11,50,20.00
2008,07,19,11,51,20.00
2008,07,19,11,52,19.90
2008,07,19,11,53,19.90
2008,07,19,11,54,19.80
2008,07,19,11,55,19.70
2008,07,19,11,56,19.70
2008,07,19,11,57,19.60
2008,07,19,11,58,19.50
2008,07,19,11,59,19.40
2008,07,19,12,00,19.40
2008,07,19,12,01,19.50
2008,07,19,12,02,19.60
2008,07,19,12,03,19.60
2008,07,19,12,04,19.60
2008,07,19,12,05,19.70
2008,07,19,12,06,19.70
2008,07,19,12,07,19.80
2008,07,19,12,08,19.90
2008,07,19,12,09,19.90
2008,07,19,12,10,20.00
2008,07,19,12,11,20.00
2008,07,19,12,12,20.00
2008,07,19,12,13,20.00
2008,07,19,12,14,20.10
2008,07,19,12,15,20.10
2008,07,19,12,16,20.20
2008,07,19,12,17,20.30
2008,07,19,12,18,20.30
2008,07,19,12,19,20.30
2008,07,19,12,20,20.30
2008,07,19,12,21,20.30
2008,07,19,12,22,20.30
2008,07,19,12,23,20.30
2008,07,19,12,24,20.20
2008,07,19,12,25,20.20
2008,07,19,12,26,20.20
2008,07,19,12,27,20.10
2008,07,19,12,28,20.00
2008,07,19,12,29,19.90
2008,07,19,12,30,19.90
2008,07,19,12,31,19.90
2008,07,19,12,32,19.80
2008,07,19,12,33,19.80
2008,07,19,12,34,19.80
2008,07,19,12,35,19.80
2008,07,19,12,36,19.80
2008,07,19,12,37,19.80
2008,07,19,12,38,19.80
2008,07,19,12,39,19.60
2008,07,19,12,40,19.60
2008,07,19,12,41,19.50
2008,07,19,12,42,19.50
2008,07,19,12,43,19.50
2008,07,19,12,44,19.50
2008,07,19,12,45,19.50
2008,07,19,12,46,19.50
2008,07,19,12,47,19.50
2008,07,19,12,48,19.60
2008,07,19,12,49,19.70
2008,07,19,12,50,19.80
2008,07,19,12,51,19.80
2008,07,19,12,52,19.90
2008,07,19,12,53,20.00
2008,07,19,12,54,20.00
2008,07,19,12,55,20.10
2008,07,19,12,56,20.20
2008,07,19,12,57,20.30
2008,07,19,12,58,20.40
2008,07,19,12,59,20.50
2008,07,19,13,00,20.50
2008,07,19,13,01,20.70
2008,07,19,13,02,20.70
2008,07,19,13,03,20.70
2008,07,19,13,04,20.70
2008,07,19,13,05,20.70
2008,07,19,13,06,20.60
2008,07,19,13,07,20.60
2008,07,19,13,08,20.60
2008,07,19,13,09,20.60
2008,07,19,13,10,20.50
2008,07,19,13,11,20.50
2008,07,19,13,12,20.40
2008,07,19,13,13,20.40
2008,07,19,13,14,20.40
2008,07,19,13,15,20.30
2008,07,19,13,16,20.10
2008,07,19,13,17,20.10
2008,07,19,13,18,20.00
2008,07,19,13,19,20.00
2008,07,19,13,20,20.00
2008,07,19,13,21,20.10
2008,07,19,13,22,20.20
2008,07,19,13,23,20.20
2008,07,19,13,24,20.20
2008,07,19,13,25,20.10
2008,07,19,13,26,20.10
2008,07,19,13,27,20.00
2008,07,19,13,28,20.00
2008,07,19,13,29,20.00
2008,07,19,13,30,19.90
2008,07,19,13,31,19.80
2008,07,19,13,32,19.80
2008,07,19,13,33,19.80
2008,07,19,13,34,19.80
2008,07,19,13,35,19.80
2008,07,19,13,36,19.70
2008,07,19,13,37,19.70
2008,07,19,13,38,19.80
2008,07,19,13,39,19.80
2008,07,19,13,40,19.80
2008,07,19,13,41,19.80
2008,07,19,13,42,19.80
2008,07,19,13,43,19.90
2008,07,19,13,44,20.00
2008,07,19,13,45,20.10
2008,07,19,13,46,20.20
2008,07,19,13,47,20.20
2008,07,19,13,48,20.20
2008,07,19,13,49,20.10
2008,07,19,13,50,20.10
2008,07,19,13,51,20.20
2008,07,19,13,52,20.20
2008,07,19,13,53,20.20
2008,07,19,13,54,20.20
2008,07,19,13,55,20.30
2008,07,19,13,56,20.30
2008,07,19,13,57,20.30
2008,07,19,13,58,20.30
2008,07,19,13,59,20.40
2008,07,19,14,00,20.40
2008,07,19,14,01,20.50
2008,07,19,14,02,20.60
2008,07,19,14,03,20.70
2008,07,19,14,04,20.80
2008,07,19,14,05,20.90
2008,07,19,14,06,21.00
2008,07,19,14,07,21.10
2008,07,19,14,08,21.10
2008,07,19,14,09,21.20
2008,07,19,14,10,21.20
2008,07,19,14,11,21.00
2008,07,19,14,12,20.90
2008,07,19,14,13,21.00
2008,07,19,14,14,21.00
2008,07,19,14,15,21.10
2008,07,19,14,16,21.10
2008,07,19,14,17,21.00
2008,07,19,14,18,20.90
2008,07,19,14,19,20.90
2008,07,19,14,20,20.90
2008,07,19,14,21,20.90
2008,07,19,14,22,20.90
2008,07,19,14,23,20.80
2008,07,19,14,24,20.80
2008,07,19,14,25,20.80
2008,07,19,14,26,20.80
2008,07,19,14,27,20.80
2008,07,19,14,28,20.70
2008,07,19,14,29,20.60
2008,07,19,14,30,20.60
2008,07,19,14,31,20.50
2008,07,19,14,32,20.60
2008,07,19,14,33,20.50
2008,07,19,14,34,20.40
2008,07,19,14,35,20.40
2008,07,19,14,36,20.20
2008,07,19,14,37,20.10
2008,07,19,14,38,20.10
2008,07,19,14,39,20.10
2008,07,19,14,40,20.30
2008,07,19,14,41,20.30
2008,07,19,14,42,20.50
2008,07,19,14,43,20.60
2008,07,19,14,44,20.60
2008,07,19,14,45,20.60
2008,07,19,14,46,20.60
2008,07,19,14,47,20.50
2008,07,19,14,48,20.60
2008,07,19,14,49,20.70
2008,07,19,14,50,20.80
2008,07,19,14,51,20.80
2008,07,19,14,52,21.00
2008,07,19,14,53,21.10
2008,07,19,14,54,21.20
2008,07,19,14,55,21.30
2008,07,19,14,56,21.40
2008,07,19,14,57,21.50
2008,07,19,14,58,21.40
2008,07,19,14,59,21.50
2008,07,19,15,00,21.50
2008,07,19,15,01,21.60
2008,07,19,15,02,21.60
2008,07,19,15,03,21.60
2008,07,19,15,04,21.60
2008,07,19,15,05,21.70
2008,07,19,15,06,21.80
2008,07,19,15,07,21.80
2008,07,19,15,08,21.80
2008,07,19,15,09,21.80
2008,07,19,15,10,21.80
2008,07,19,15,11,21.80
2008,07,19,15,12,21.70
2008,07,19,15,13,21.70
2008,07,19,15,14,21.80
2008,07,19,15,15,21.90
2008,07,19,15,16,21.90
2008,07,19,15,17,21.90
2008,07,19,15,18,22.00
2008,07,19,15,19,22.20
2008,07,19,15,20,22.30
2008,07,19,15,21,22.40
2008,07,19,15,22,22.50
2008,07,19,15,23,22.60
2008,07,19,15,24,22.60
2008,07,19,15,25,22.70
2008,07,19,15,26,22.80
2008,07,19,15,27,22.80
2008,07,19,15,28,23.00
2008,07,19,15,29,23.10
2008,07,19,15,30,23.20
2008,07,19,15,31,23.20
2008,07,19,15,32,23.20
2008,07,19,15,33,23.00
2008,07,19,15,34,22.90
2008,07,19,15,35,22.90
2008,07,19,15,36,22.90
2008,07,19,15,37,23.00
2008,07,19,15,38,23.10
2008,07,19,15,39,23.10
2008,07,19,15,40,22.90
2008,07,19,15,41,22.60
2008,07,19,15,42,22.40
2008,07,19,15,43,22.30
2008,07,19,15,44,22.30
2008,07,19,15,45,22.30
2008,07,19,15,46,22.30
2008,07,19,15,47,22.30
2008,07,19,15,48,22.30
2008,07,19,15,49,22.20
2008,07,19,15,50,22.10
2008,07,19,15,51,22.00
2008,07,19,15,52,21.90
2008,07,19,15,53,21.80
2008,07,19,15,54,21.70
2008,07,19,15,55,21.70
2008,07,19,15,56,21.80
2008,07,19,15,57,21.80
2008,07,19,15,58,22.00
2008,07,19,15,59,22.10
2008,07,19,16,00,22.30
2008,07,19,16,01,22.40
2008,07,19,16,02,22.60
2008,07,19,16,03,22.70
2008,07,19,16,04,22.90
2008,07,19,16,05,23.00
2008,07,19,16,06,23.10
2008,07,19,16,07,23.10
2008,07,19,16,08,23.10
2008,07,19,16,09,23.20
2008,07,19,16,10,23.20
2008,07,19,16,11,23.20
2008,07,19,16,12,23.20
2008,07,19,16,13,23.10
2008,07,19,16,14,23.10
2008,07,19,16,15,22.80
2008,07,19,16,16,22.50
2008,07,19,16,17,22.30
2008,07,19,16,18,22.20
2008,07,19,16,19,22.20
2008,07,19,16,20,22.10
2008,07,19,16,21,22.00
2008,07,19,16,22,21.90
2008,07,19,16,23,21.90
2008,07,19,16,24,21.80
2008,07,19,16,25,21.80
2008,07,19,16,26,21.70
2008,07,19,16,27,21.60
2008,07,19,16,28,21.60
2008,07,19,16,29,21.60
2008,07,19,16,30,21.80
2008,07,19,16,31,21.90
2008,07,19,16,32,21.80
2008,07,19,16,33,21.80
2008,07,19,16,34,21.80
2008,07,19,16,35,21.80
2008,07,19,16,36,21.80
2008,07,19,16,37,21.70
2008,07,19,16,38,21.80
2008,07,19,16,39,21.80
2008,07,19,16,40,21.80
2008,07,19,16,41,21.70
2008,07,19,16,42,21.60
2008,07,19,16,43,21.40
2008,07,19,16,44,21.20
2008,07,19,16,45,21.10
2008,07,19,16,46,21.00
2008,07,19,16,47,21.00
2008,07,19,16,48,21.00
2008,07,19,16,49,21.00
2008,07,19,16,50,20.80
2008,07,19,16,51,20.80
2008,07,19,16,52,20.70
2008,07,19,16,53,20.80
2008,07,19,16,54,20.80
2008,07,19,16,55,20.90
2008,07,19,16,56,20.90
2008,07,19,16,57,21.10
2008,07,19,16,58,21.10
2008,07,19,16,59,21.10
2008,07,19,17,00,21.10
2008,07,19,17,01,21.20
2008,07,19,17,02,21.20
2008,07,19,17,03,21.20
2008,07,19,17,04,21.20
2008,07,19,17,05,21.20
2008,07,19,17,06,21.10
2008,07,19,17,07,21.00
2008,07,19,17,08,21.00
2008,07,19,17,09,21.00
2008,07,19,17,10,20.90
2008,07,19,17,11,20.90
2008,07,19,17,12,20.80
2008,07,19,17,13,20.90
2008,07,19,17,14,20.90
2008,07,19,17,15,20.90
2008,07,19,17,16,20.90
2008,07,19,17,17,20.90
2008,07,19,17,18,20.90
2008,07,19,17,19,21.00